This demonstration page uses our WeatherBlox Daily Observations layout. Learn more.

Left ArrowRight Arrow

Hourly Observations for September 9, 2018

Temp ( °F °C ) Dew Point ( °F °C ) Humidity (%) Winds ( mph kmh ) Pressure ( in mb ) Visibility ( mi km ) Precip ( " mm )
12:53 am 00:53 Cloudy with Rain 61 16.1 59 15 93 93 ENE 9 15 29.92 1013 3 5 0.16 4.06
1:10 am 01:10 Cloudy with Heavy Rain 61 16.1 59 15 93 93 ENE 9 15 29.94 1014 3 5 0.05 1.27
1:32 am 01:32 Cloudy with Heavy Rain 60 15.6 59 15 96 96 ENE 12 19 29.91 1013 3 4 0.20 5.08
1:39 am 01:39 Cloudy with Heavy Rain 60 15.6 59 15 96 96 NE 10 17 29.91 1013 3 4 0.24 6.10
1:43 am 01:43 Cloudy with Heavy Rain 60 15.6 59 15 96 96 NE 10 17 29.91 1013 3 5 0.26 6.60
1:53 am 01:53 Cloudy with Heavy Rain 60 15.6 59 15 96 96 NE 10 17 29.91 1013 3 5 0.31 7.87
2:25 am 02:25 Cloudy with Rain 60 15.6 59 15 96 96 VRB 7 11 29.91 1013 3 5 0.07 1.78
2:40 am 02:40 Cloudy with Light Rain 60 15.6 59 15 96 96 NE 7 11 29.91 1013 6 10 0.08 2.03
2:53 am 02:53 Cloudy with Light Rain 60 15.6 58 14.4 93 93 ENE 10 17 29.89 1012 7 11 0.09 2.29
3:05 am 03:05 Cloudy with Rain 60 15.6 58 14.4 93 93 ENE 6 9 29.91 1013 3 5 0.01 0.25
3:53 am 03:53 Cloudy with Light Rain 60 15.6 58 14.4 93 93 NNE 6 9 29.89 1012 7 11 0.06 1.52
4:06 am 04:06 Cloudy with Heavy Rain 60 15.6 58 14.4 93 93 NE 9 15 29.88 1012 3 4 0.04 1.02
4:14 am 04:14 Cloudy with Light Rain 60 15.6 58 14.4 93 93 NE 6 9 29.88 1012 5 8 0.04 1.02
4:53 am 04:53 Cloudy with Light Rain 60 15.6 58 14.4 93 93 NE 10 17 29.87 1011 10 16 0.06 1.52
5:53 am 05:53 Cloudy 59 15 57 13.9 93 93 ENE 9 15 29.86 1011 10 16 0.03 0.76
6:53 am 06:53 Cloudy 59 15 56 13.3 90 90 ENE 9 15 29.86 1011 10 16 0.00 0.03
7:45 am 07:45 Cloudy with Light Rain 58 14.4 56 13.3 93 93 ENE 8 13 29.88 1012 2 3 0.01 0.25
7:53 am 07:53 Cloudy with Light Rain 58 14.4 56 13.3 93 93 ENE 8 13 29.88 1012 2 3 0.01 0.25
8:13 am 08:13 Cloudy with Light Rain 58 14.4 56 13.3 93 93 ENE 8 13 29.88 1012 3 5 0.00 0.03
8:17 am 08:17 Cloudy with Light Rain 58 14.4 56 13.3 93 93 ENE 7 11 29.88 1012 3 4 0.00 0.03
8:44 am 08:44 Cloudy with Light Rain 58 14.4 56 13.3 93 93 ENE 9 15 29.88 1012 3 5 0.02 0.51
8:53 am 08:53 Cloudy with Light Rain 58 14.4 56 13.3 93 93 ENE 8 13 29.89 1012 5 8 0.02 0.51
9:14 am 09:14 Cloudy with Light Rain 58 14.4 56 13.3 93 93 NE 9 15 29.91 1013 9 14 0.00 0.03
9:53 am 09:53 Cloudy with Light Rain 59 15 57 13.9 93 93 ENE 6 9 29.89 1012 6 10 0.01 0.25
10:53 am 10:53 Cloudy with Light Rain 59 15 58 14.4 96 96 ENE 6 9 29.90 1012 8 13 0.02 0.51
11:53 am 11:53 Cloudy with Light Rain 60 15.6 59 15 96 96 NNE 7 11 29.89 1012 9 14 0.02 0.51
12:12 pm 12:12 Cloudy with Light Rain 60 15.6 59 15 96 96 ENE 6 9 29.91 1013 10 16 0.00 0.03
12:53 pm 12:53 Cloudy 61 16.1 59 15 93 93 ENE 7 11 29.88 1012 10 16 0.00 0.03
1:18 pm 13:18 Cloudy with Light Rain 61 16.1 59 15 93 93 NE 9 15 29.88 1012 10 16 0.00 0.03
1:25 pm 13:25 Cloudy 61 16.1 59 15 93 93 NNE 7 11 29.88 1012 10 16 0.00 0.03
1:36 pm 13:36 Cloudy 61 16.1 59 15 93 93 NE 5 7 29.88 1012 10 16 0.00 0.03
1:53 pm 13:53 Cloudy 61 16.1 59 15 93 93 NE 10 17 29.87 1011 9 14 0.00 0.03
2:32 pm 14:32 Cloudy with Light Rain 61 16.1 60 15.6 97 97 NNE 9 15 29.85 1011 5 8 0.01 0.25
2:53 pm 14:53 Cloudy with Light Rain 62 16.7 60 15.6 93 93 VRB 5 7 29.85 1011 10 16 0.01 0.25
3:05 pm 15:05 Cloudy with Light Rain 62 16.7 60 15.6 93 93 NNE 7 11 29.85 1011 10 16 0.00 0.03
3:24 pm 15:24 Cloudy with Light Rain 62 16.7 60 15.6 93 93 NNE 6 9 29.85 1011 10 16 0.00 0.03
3:53 pm 15:53 Cloudy 62 16.7 60 15.6 93 93 NNE 7 11 29.84 1011 10 16 0.00 0.03
4:16 pm 16:16 Cloudy with Light Rain 62 16.7 60 15.6 93 93 NNE 7 11 29.85 1011 10 16 0.00 0.03
4:43 pm 16:43 Cloudy with Light Rain 62 16.7 60 15.6 93 93 VRB 3 6 29.85 1011 3 4 0.03 0.76
4:49 pm 16:49 Cloudy with Light Rain 63 17 61 16 94 94 N 6 9 29.85 1011 3 5 0.03 0.76
4:53 pm 16:53 Cloudy with Rain 61 16.1 60 15.6 97 97 N 6 9 29.84 1011 3 4 0.04 1.02
5:01 pm 17:01 Cloudy with Light Rain 62 16.7 60 15.6 93 93 N 8 13 29.83 1010 3 4 0.01 0.25
5:10 pm 17:10 Cloudy with Light Rain 62 16.7 60 15.6 93 93 N 6 9 29.83 1010 5 8 0.01 0.25
5:24 pm 17:24 Cloudy with Light Rain 61 16.1 60 15.6 97 97 N 6 9 29.83 1010 3 4 0.02 0.51
5:30 pm 17:30 Cloudy with Rain 61 16.1 60 15.6 97 97 N 7 11 29.83 1010 2 2 0.03 0.76
5:48 pm 17:48 Cloudy with Light Rain 63 17 61 16 94 94 NNE 6 9 29.83 1010 2 3 0.06 1.52
5:53 pm 17:53 Cloudy with Light Rain 62 16.7 60 15.6 93 93 NE 6 9 29.83 1010 3 5 0.07 1.78
6:01 pm 18:01 Cloudy with Light Rain 62 16.7 60 15.6 93 93 NNE 6 9 29.83 1010 6 10 0.00 0.03
6:14 pm 18:14 Cloudy 62 16.7 60 15.6 93 93 N 7 11 29.83 1010 10 16 0.00 0.03
6:24 pm 18:24 Cloudy 62 16.7 60 15.6 93 93 N 6 9 29.83 1010 10 16 0.00 0.03
6:34 pm 18:34 Cloudy with Rain 62 16.7 60 15.6 93 93 NNE 6 9 29.83 1010 3 5 0.01 0.25
6:42 pm 18:42 Cloudy with Light Rain 62 16.7 61 16.1 96 96 NNE 7 11 29.83 1010 2 3 0.02 0.51
6:53 pm 18:53 Cloudy with Light Rain 62 16.7 60 15.6 93 93 VRB 6 9 29.83 1010 5 8 0.02 0.51
7:02 pm 19:02 Cloudy 62 16.7 60 15.6 93 93 NE 6 9 29.83 1010 9 14 0.00 0.03
7:53 pm 19:53 Cloudy 62 16.7 60 15.6 93 93 N 5 7 29.83 1010 10 16 0.00 0.03
8:53 pm 20:53 Cloudy 62 16.7 60 15.6 93 93 Calm 29.84 1010 10 16 0.00 0.00
9:53 pm 21:53 Cloudy 62 16.7 60 15.6 93 93 NNW 3 6 29.84 1011 10 16 0.00 0.00
10:18 pm 22:18 Cloudy 62 16.7 60 15.6 93 93 NW 5 7 29.85 1011 10 16 0.00 0.00
10:53 pm 22:53 Cloudy 61 16.1 60 15.6 97 97 NW 6 9 29.85 1011 10 16 0.00 0.00
11:53 pm 23:53 Cloudy 61 16.1 60 15.6 97 97 NW 5 7 29.86 1011 9 14 0.00 0.00

Powered by AerisWeather